| time (UTC) | temp F | wind direction | speed MPH | gust MPH | rain 1hr in | rain 24hr in | rain mn in | humidity % | barometer mb |
| 20260507015116 | 61 | 293 | 6.0 | 11.0 | 0.00 | 0.00 | 0.00 | 56 | 1021.9 |
| 20260507014115 | 61 | 315 | 7.0 | 11.0 | 0.00 | 0.00 | 0.00 | 55 | 1022.1 |
| 20260507013115 | 62 | 338 | 6.0 | 10.0 | 0.00 | 0.00 | 0.00 | 55 | 1022.1 |
| 20260507012115 | 62 | 315 | 8.0 | 12.0 | 0.00 | 0.00 | 0.00 | 54 | 1022.1 |
| 20260507011116 | 63 | 338 | 4.0 | 7.0 | 0.00 | 0.00 | 0.00 | 54 | 1022.2 |
| 20260507010115 | 63 | 315 | 6.0 | 11.0 | 0.00 | 0.00 | 0.00 | 54 | 1022.2 |
| 20260507005115 | 64 | 0 | 4.0 | 8.0 | 0.00 | 0.00 | 0.00 | 53 | 1022.1 |
| 20260507004115 | 65 | 45 | 2.0 | 5.0 | 0.00 | 0.00 | 0.00 | 54 | 1022.1 |
| 20260507003115 | 65 | 293 | 3.0 | 4.0 | 0.00 | 0.00 | 0.00 | 54 | 1022.1 |
| 20260507002115 | 65 | 23 | 2.0 | 4.0 | 0.00 | 0.00 | 0.00 | 55 | 1022.1 |
| 20260507001116 | 65 | 23 | 2.0 | 4.0 | 0.00 | 0.00 | 0.00 | 55 | 1022.1 |
| 20260507000115 | 65 | 338 | 3.0 | 4.0 | 0.00 | 0.00 | 0.00 | 55 | 1022.2 |
| 20260506235115 | 65 | 293 | 3.0 | 5.0 | 0.00 | 0.00 | 0.00 | 54 | 1022.1 |
| 20260506234135 | 66 | 315 | 2.0 | 4.0 | 0.00 | 0.00 | 0.00 | 53 | 1022.1 |
| 20260506233118 | 66 | 293 | 3.0 | 4.0 | 0.00 | 0.00 | 0.00 | 52 | 1022.1 |
| 20260506232117 | 67 | 270 | 4.0 | 6.0 | 0.00 | 0.00 | 0.00 | 51 | 1022.1 |
| 20260506231117 | 67 | 338 | 1.0 | 2.0 | 0.00 | 0.00 | 0.00 | 52 | 1022.1 |
| 20260506230117 | 66 | 293 | 2.0 | 4.0 | 0.00 | 0.00 | 0.00 | 53 | 1022.2 |
| 20260506225118 | 65 | 293 | 2.0 | 4.0 | 0.00 | 0.00 | 0.00 | 53 | 1022.3 |
| 20260506224118 | 65 | 315 | 2.0 | 5.0 | 0.00 | 0.00 | 0.00 | 53 | 1022.3 |
| 20260506223137 | 65 | 338 | 4.0 | 6.0 | 0.00 | 0.00 | 0.00 | 54 | 1022.5 |
| 20260506222118 | 65 | 338 | 2.0 | 4.0 | 0.00 | 0.00 | 0.00 | 53 | 1022.6 |
| 20260506221138 | 65 | 338 | 2.0 | 2.0 | 0.00 | 0.00 | 0.00 | 53 | 1022.6 |
| 20260506220117 | 64 | 0 | 2.0 | 3.0 | 0.00 | 0.00 | 0.00 | 55 | 1022.6 |
| 20260506215118 | 64 | 23 | 1.0 | 3.0 | 0.00 | 0.00 | 0.00 | 54 | 1022.7 |
| 20260506214138 | 65 | 23 | 1.0 | 2.0 | 0.00 | 0.00 | 0.00 | 52 | 1022.6 |
| 20260506213137 | 66 | 23 | 2.0 | 3.0 | 0.00 | 0.00 | 0.00 | 55 | 1022.7 |
| 20260506212138 | 65 | 68 | 1.0 | 4.0 | 0.00 | 0.00 | 0.00 | 53 | 1023.1 |
| 20260506211117 | 64 | 270 | 2.0 | 3.0 | 0.00 | 0.00 | 0.00 | 56 | 1023.1 |
| 20260506210137 | 63 | 315 | 2.0 | 4.0 | 0.00 | 0.00 | 0.00 | 56 | 1023.1 |
| 20260506205117 | 63 | 248 | 3.0 | 6.0 | 0.00 | 0.00 | 0.00 | 56 | 1023.1 |
| 20260506204117 | 63 | 338 | 4.0 | 7.0 | 0.00 | 0.00 | 0.00 | 57 | 1023.0 |
| 20260506203117 | 63 | 293 | 2.0 | 4.0 | 0.00 | 0.00 | 0.00 | 56 | 1023.0 |
| 20260506202117 | 62 | 158 | 1.0 | 2.0 | 0.00 | 0.00 | 0.00 | 57 | 1023.0 |
| 20260506201117 | 62 | 270 | 2.0 | 4.0 | 0.00 | 0.00 | 0.00 | 56 | 1023.0 |
| 20260506200117 | 61 | 293 | 3.0 | 6.0 | 0.00 | 0.00 | 0.00 | 57 | 1023.1 |
| 20260506195138 | 61 | 315 | 1.0 | 2.0 | 0.00 | 0.00 | 0.00 | 58 | 1023.2 |
| 20260506194117 | 61 | 225 | 2.0 | 3.0 | 0.00 | 0.00 | 0.00 | 57 | 1023.2 |
| 20260506193158 | 61 | 270 | 3.0 | 4.0 | 0.00 | 0.00 | 0.00 | 57 | 1023.2 |
| 20260506192117 | 61 | 293 | 4.0 | 7.0 | 0.00 | 0.00 | 0.00 | 57 | 1023.1 |
| 20260506191116 | 61 | 270 | 5.0 | 7.0 | 0.00 | 0.00 | 0.00 | 57 | 1023.1 |
| 20260506190118 | 61 | 338 | 2.0 | 3.0 | 0.00 | 0.00 | 0.00 | 59 | 1023.0 |
| 20260506185137 | 60 | 315 | 2.0 | 4.0 | 0.00 | 0.00 | 0.00 | 58 | 1023.1 |
| 20260506184138 | 60 | 270 | 3.0 | 4.0 | 0.00 | 0.00 | 0.00 | 57 | 1023.0 |
| 20260506183116 | 60 | 338 | 1.0 | 2.0 | 0.00 | 0.00 | 0.00 | 59 | 1022.8 |
| 20260506182117 | 59 | 315 | 2.0 | 4.0 | 0.00 | 0.00 | 0.00 | 59 | 1023.1 |
| 20260506181117 | 59 | 293 | 3.0 | 6.0 | 0.00 | 0.00 | 0.00 | 60 | 1023.1 |
| 20260506180117 | 58 | 315 | 2.0 | 3.0 | 0.00 | 0.00 | 0.00 | 59 | 1023.0 |
| 20260506175117 | 59 | 315 | 2.0 | 4.0 | 0.00 | 0.00 | 0.00 | 59 | 1023.0 |
| 20260506174117 | 59 | 338 | 2.0 | 3.0 | 0.00 | 0.00 | 0.00 | 59 | 1022.8 |
| 20260506173117 | 59 | 338 | 3.0 | 4.0 | 0.00 | 0.00 | 0.00 | 59 | 1022.6 |
| 20260506172117 | 58 | 293 | 2.0 | 3.0 | 0.00 | 0.00 | 0.00 | 60 | 1022.7 |
| 20260506171117 | 58 | 315 | 2.0 | 3.0 | 0.00 | 0.00 | 0.00 | 60 | 1022.7 |
| 20260506170117 | 57 | 338 | 4.0 | 6.0 | 0.00 | 0.00 | 0.00 | 61 | 1022.6 |
| 20260506165117 | 57 | 315 | 3.0 | 5.0 | 0.00 | 0.00 | 0.00 | 61 | 1022.8 |
| 20260506164117 | 57 | 270 | 3.0 | 5.0 | 0.00 | 0.00 | 0.00 | 60 | 1022.7 |
| 20260506163117 | 57 | 0 | 4.0 | 7.0 | 0.00 | 0.00 | 0.00 | 61 | 1022.8 |
| 20260506162117 | 57 | 315 | 3.0 | 5.0 | 0.00 | 0.00 | 0.00 | 62 | 1022.5 |
| 20260506161116 | 56 | 315 | 2.0 | 3.0 | 0.00 | 0.00 | 0.00 | 62 | 1022.3 |
| 20260506160116 | 56 | 0.0 | 2.0 | 0.00 | 0.00 | 0.00 | 63 | 1022.1 | |
| 20260506155136 | 55 | 158 | 1.0 | 2.0 | 0.00 | 0.00 | 0.00 | 64 | 1021.8 |
| 20260506154117 | 54 | 0 | 2.0 | 3.0 | 0.00 | 0.00 | 0.00 | 65 | 1021.9 |
| 20260506153117 | 54 | 315 | 3.0 | 4.0 | 0.00 | 0.00 | 0.00 | 65 | 1022.3 |
| 20260506152116 | 54 | 293 | 3.0 | 6.0 | 0.00 | 0.00 | 0.00 | 66 | 1022.5 |
| 20260506151117 | 53 | 293 | 5.0 | 8.0 | 0.00 | 0.00 | 0.00 | 66 | 1022.7 |
| 20260506150117 | 53 | 315 | 6.0 | 9.0 | 0.00 | 0.00 | 0.00 | 66 | 1022.5 |
| 20260506145116 | 53 | 338 | 6.0 | 9.0 | 0.00 | 0.00 | 0.00 | 66 | 1022.3 |
| 20260506144137 | 53 | 293 | 4.0 | 6.0 | 0.00 | 0.00 | 0.00 | 66 | 1022.3 |
| 20260506143117 | 54 | 315 | 4.0 | 8.0 | 0.00 | 0.00 | 0.00 | 66 | 1022.1 |
| 20260506142116 | 54 | 0 | 4.0 | 6.0 | 0.00 | 0.00 | 0.00 | 66 | 1021.9 |
| 20260506141117 | 54 | 338 | 3.0 | 4.0 | 0.00 | 0.00 | 0.00 | 66 | 1021.8 |
| 20260506140116 | 54 | 293 | 2.0 | 4.0 | 0.00 | 0.00 | 0.00 | 66 | 1021.9 |
| 20260506135117 | 54 | 293 | 4.0 | 5.0 | 0.00 | 0.00 | 0.00 | 66 | 1021.7 |
| 20260506134116 | 54 | 0 | 3.0 | 5.0 | 0.00 | 0.00 | 0.00 | 66 | 1021.7 |
| 20260506133116 | 54 | 315 | 1.0 | 3.0 | 0.00 | 0.00 | 0.00 | 66 | 1021.7 |
| 20260506132116 | 54 | 293 | 2.0 | 2.0 | 0.00 | 0.00 | 0.00 | 66 | 1021.4 |
| 20260506131116 | 54 | 293 | 1.0 | 1.0 | 0.00 | 0.00 | 0.00 | 66 | 1021.2 |
| 20260506130136 | 54 | 293 | 1.0 | 1.0 | 0.00 | 0.00 | 0.00 | 67 | 1021.2 |
| 20260506125116 | 54 | 293 | 2.0 | 3.0 | 0.00 | 0.00 | 0.00 | 66 | 1021.0 |
| 20260506124137 | 54 | 315 | 1.0 | 2.0 | 0.00 | 0.00 | 0.00 | 66 | 1021.1 |
| 20260506123116 | 54 | 0.0 | 1.0 | 0.00 | 0.00 | 0.00 | 66 | 1021.0 | |
| 20260506122116 | 54 | 315 | 4.0 | 6.0 | 0.00 | 0.00 | 0.00 | 66 | 1021.1 |
| 20260506121116 | 54 | 293 | 2.0 | 4.0 | 0.00 | 0.00 | 0.00 | 66 | 1021.0 |
| 20260506120117 | 54 | 293 | 4.0 | 6.0 | 0.00 | 0.00 | 0.00 | 66 | 1021.0 |
| 20260506115116 | 54 | 293 | 3.0 | 3.0 | 0.00 | 0.00 | 0.00 | 66 | 1020.8 |
| 20260506114116 | 54 | 293 | 3.0 | 4.0 | 0.00 | 0.00 | 0.00 | 66 | 1020.7 |
| 20260506113116 | 54 | 315 | 4.0 | 7.0 | 0.00 | 0.00 | 0.00 | 66 | 1020.6 |
| 20260506112116 | 54 | 315 | 3.0 | 7.0 | 0.00 | 0.00 | 0.00 | 66 | 1020.6 |
| 20260506111116 | 54 | 315 | 4.0 | 5.0 | 0.00 | 0.00 | 0.00 | 66 | 1020.6 |
| 20260506110117 | 54 | 315 | 4.0 | 5.0 | 0.00 | 0.00 | 0.00 | 66 | 1020.4 |
| 20260506105116 | 54 | 315 | 4.0 | 5.0 | 0.00 | 0.00 | 0.00 | 66 | 1020.3 |
| 20260506104116 | 54 | 315 | 3.0 | 4.0 | 0.00 | 0.00 | 0.00 | 66 | 1020.1 |
| 20260506103116 | 55 | 293 | 3.0 | 4.0 | 0.00 | 0.00 | 0.00 | 66 | 1020.1 |
| 20260506102116 | 55 | 293 | 3.0 | 4.0 | 0.00 | 0.00 | 0.00 | 66 | 1020.0 |
| 20260506101116 | 55 | 270 | 3.0 | 6.0 | 0.00 | 0.00 | 0.00 | 65 | 1019.9 |
| 20260506100117 | 55 | 293 | 3.0 | 6.0 | 0.00 | 0.00 | 0.00 | 65 | 1019.9 |
| 20260506095115 | 55 | 315 | 3.0 | 4.0 | 0.00 | 0.00 | 0.00 | 66 | 1019.8 |
| 20260506094116 | 55 | 293 | 2.0 | 3.0 | 0.00 | 0.00 | 0.00 | 65 | 1019.8 |
| 20260506093116 | 55 | 315 | 2.0 | 3.0 | 0.00 | 0.00 | 0.00 | 65 | 1019.8 |
| 20260506092116 | 55 | 270 | 3.0 | 4.0 | 0.00 | 0.00 | 0.00 | 65 | 1019.7 |
| 20260506091116 | 55 | 315 | 4.0 | 5.0 | 0.00 | 0.00 | 0.00 | 65 | 1019.7 |
| 20260506090116 | 55 | 315 | 3.0 | 4.0 | 0.00 | 0.00 | 0.00 | 65 | 1019.7 |
| 20260506085115 | 55 | 315 | 3.0 | 4.0 | 0.00 | 0.00 | 0.00 | 64 | 1019.7 |
| 20260506084116 | 56 | 293 | 4.0 | 6.0 | 0.00 | 0.00 | 0.00 | 64 | 1019.7 |
| 20260506083136 | 56 | 293 | 3.0 | 4.0 | 0.00 | 0.00 | 0.00 | 64 | 1019.7 |
| 20260506082116 | 56 | 293 | 3.0 | 5.0 | 0.00 | 0.00 | 0.00 | 64 | 1019.7 |
| 20260506081115 | 56 | 315 | 2.0 | 4.0 | 0.00 | 0.00 | 0.00 | 64 | 1019.5 |
| 20260506080115 | 56 | 293 | 3.0 | 5.0 | 0.00 | 0.00 | 0.00 | 64 | 1019.5 |
| 20260506073115 | 57 | 293 | 2.0 | 3.0 | 0.00 | 0.00 | 0.00 | 64 | 1019.2 |
| 20260506072116 | 57 | 315 | 1.0 | 5.0 | 0.00 | 0.00 | 0.00 | 64 | 1019.1 |
| 20260506071116 | 57 | 293 | 2.0 | 3.0 | 0.00 | 0.00 | 0.00 | 63 | 1019.1 |
| 20260506070137 | 57 | 293 | 2.0 | 3.0 | 0.00 | 0.00 | 0.00 | 63 | 1019.1 |
| 20260506062136 | 58 | 293 | 2.0 | 3.0 | 0.00 | 0.00 | 0.00 | 63 | 1019.0 |
| 20260506061116 | 59 | 293 | 2.0 | 3.0 | 0.00 | 0.00 | 0.00 | 63 | 1018.9 |
| 20260506060116 | 58 | 0.0 | 0.0 | 0.00 | 0.00 | 0.00 | 62 | 1018.6 | |
| 20260506051116 | 58 | 0.0 | 1.0 | 0.00 | 0.00 | 0.00 | 62 | 1018.4 | |
| 20260506050116 | 58 | 0.0 | 0.0 | 0.00 | 0.00 | 0.00 | 62 | 1018.3 | |
| 20260506045116 | 58 | 0.0 | 0.0 | 0.00 | 0.00 | 0.00 | 63 | 1018.4 | |
| 20260506044116 | 58 | 0.0 | 0.0 | 0.00 | 0.00 | 0.00 | 62 | 1018.1 | |
| 20260506043116 | 58 | 0.0 | 0.0 | 0.00 | 0.00 | 0.00 | 62 | 1018.0 | |
| 20260506042116 | 59 | 338 | 1.0 | 1.0 | 0.00 | 0.00 | 0.00 | 61 | 1017.9 |
| 20260506041116 | 59 | 0.0 | 1.0 | 0.00 | 0.00 | 0.00 | 60 | 1017.7 | |
| 20260506040116 | 59 | 0.0 | 0.0 | 0.00 | 0.00 | 0.00 | 60 | 1017.6 | |
| 20260506035116 | 60 | 0.0 | 0.0 | 0.00 | 0.00 | 0.00 | 60 | 1017.5 | |
| 20260506034116 | 60 | 338 | 1.0 | 2.0 | 0.00 | 0.00 | 0.00 | 60 | 1017.5 |
| 20260506033116 | 60 | 0.0 | 1.0 | 0.00 | 0.00 | 0.00 | 60 | 1017.4 | |
| 20260506032115 | 60 | 0.0 | 0.0 | 0.00 | 0.00 | 0.00 | 60 | 1017.4 | |
| 20260506031116 | 60 | 0.0 | 1.0 | 0.00 | 0.00 | 0.00 | 59 | 1017.2 | |
| 20260506030116 | 60 | 0.0 | 0.0 | 0.00 | 0.00 | 0.00 | 59 | 1017.3 | |
| 20260506025115 | 60 | 0.0 | 1.0 | 0.00 | 0.00 | 0.00 | 58 | 1017.1 | |
| 20260506024115 | 60 | 0.0 | 0.0 | 0.00 | 0.00 | 0.00 | 58 | 1017.0 | |
| 20260506023136 | 61 | 338 | 1.0 | 1.0 | 0.00 | 0.00 | 0.00 | 58 | 1017.1 |
| 20260506022115 | 61 | 0.0 | 0.0 | 0.00 | 0.00 | 0.00 | 58 | 1017.0 | |
| 20260506021116 | 61 | 0.0 | 1.0 | 0.00 | 0.00 | 0.00 | 58 | 1016.9 | |
| 20260506020116 | 61 | 0.0 | 0.0 | 0.00 | 0.00 | 0.00 | 58 | 1017.0 |